| time (UTC) | temp F | wind direction | speed MPH | gust MPH | rain 1hr in | rain 24hr in | rain mn in | humidity % | barometer mb |
| 20260504044534 | 65 | 287 | 4.0 | 0.0 | 0.00 | 0.00 | 0.00 | 41 | 1006.7 |
| 20260504043024 | 65 | 302 | 7.0 | 0.0 | 0.00 | 0.00 | 0.00 | 41 | 1006.5 |
| 20260504041520 | 66 | 289 | 8.0 | 0.0 | 0.00 | 0.00 | 0.00 | 42 | 1006.3 |
| 20260504040018 | 67 | 232 | 9.0 | 0.0 | 0.00 | 0.00 | 0.00 | 36 | 1006.2 |
| 20260504034517 | 67 | 190 | 12.0 | 0.0 | 0.00 | 0.00 | 0.00 | 36 | 1006.1 |
| 20260504033017 | 67 | 217 | 17.0 | 0.0 | 0.00 | 0.00 | 0.00 | 37 | 1005.8 |
| 20260504031516 | 68 | 235 | 17.0 | 0.0 | 0.00 | 0.00 | 0.00 | 35 | 1005.7 |
| 20260504030018 | 67 | 265 | 12.0 | 0.0 | 0.00 | 0.00 | 0.00 | 38 | 1005.3 |
| 20260504024511 | 69 | 230 | 11.0 | 0.0 | 0.00 | 0.00 | 0.00 | 35 | 1005.6 |
| 20260504023010 | 69 | 293 | 9.0 | 0.0 | 0.00 | 0.00 | 0.00 | 39 | 1005.7 |
| 20260504021511 | 71 | 269 | 20.0 | 0.0 | 0.00 | 0.00 | 0.00 | 33 | 1005.0 |
| 20260504020013 | 73 | 250 | 16.0 | 0.0 | 0.00 | 0.00 | 0.00 | 33 | 1004.8 |
| 20260504014505 | 74 | 304 | 14.0 | 0.0 | 0.00 | 0.00 | 0.00 | 31 | 1004.6 |
| 20260504013009 | 76 | 241 | 9.0 | 0.0 | 0.00 | 0.00 | 0.00 | 26 | 1004.6 |
| 20260504011502 | 77 | 242 | 12.0 | 0.0 | 0.00 | 0.00 | 0.00 | 26 | 1004.4 |
| 20260504010002 | 78 | 342 | 8.0 | 0.0 | 0.00 | 0.00 | 0.00 | 26 | 1004.1 |
| 20260504004502 | 79 | 242 | 5.0 | 0.0 | 0.00 | 0.00 | 0.00 | 24 | 1004.3 |
| 20260504003000 | 79 | 267 | 11.0 | 0.0 | 0.00 | 0.00 | 0.00 | 22 | 1003.9 |
| 20260504001608 | 81 | 244 | 9.0 | 0.0 | 0.00 | 0.00 | 0.00 | 21 | 1003.7 |
| 20260504001502 | 81 | 240 | 9.0 | 0.0 | 0.00 | 0.00 | 0.00 | 21 | 1003.6 |
| 20260504000100 | 82 | 242 | 11.0 | 0.0 | 0.00 | 0.00 | 0.00 | 20 | 1003.6 |
| 20260503234600 | 82 | 217 | 15.0 | 0.0 | 0.00 | 0.00 | 0.00 | 21 | 1003.1 |
| 20260503233102 | 82 | 196 | 17.0 | 0.0 | 0.00 | 0.00 | 0.00 | 23 | 1003.1 |
| 20260503231559 | 82 | 208 | 22.0 | 0.0 | 0.00 | 0.00 | 0.00 | 22 | 1002.8 |
| 20260503224557 | 85 | 209 | 16.0 | 0.0 | 0.00 | 0.00 | 0.00 | 20 | 1002.7 |
| 20260503223056 | 85 | 234 | 13.0 | 0.0 | 0.00 | 0.00 | 0.00 | 20 | 1002.9 |
| 20260503221555 | 86 | 139 | 8.0 | 0.0 | 0.00 | 0.00 | 0.00 | 20 | 1003.1 |
| 20260503220053 | 86 | 177 | 11.0 | 0.0 | 0.00 | 0.00 | 0.00 | 18 | 1003.3 |
| 20260503214600 | 86 | 192 | 14.0 | 0.0 | 0.00 | 0.00 | 0.00 | 18 | 1003.6 |
| 20260503213052 | 86 | 219 | 11.0 | 0.0 | 0.00 | 0.00 | 0.00 | 19 | 1003.6 |
| 20260503211553 | 86 | 202 | 13.0 | 0.0 | 0.00 | 0.00 | 0.00 | 21 | 1003.8 |
| 20260503210048 | 85 | 215 | 14.0 | 0.0 | 0.00 | 0.00 | 0.00 | 20 | 1003.8 |
| 20260503204555 | 86 | 206 | 13.0 | 0.0 | 0.00 | 0.00 | 0.00 | 19 | 1003.9 |
| 20260503203049 | 86 | 162 | 13.0 | 0.0 | 0.00 | 0.00 | 0.00 | 18 | 1004.2 |
| 20260503201543 | 87 | 162 | 12.0 | 0.0 | 0.00 | 0.00 | 0.00 | 16 | 1004.4 |
| 20260503200043 | 88 | 167 | 12.0 | 0.0 | 0.00 | 0.00 | 0.00 | 15 | 1004.5 |
| 20260503194545 | 87 | 184 | 12.0 | 0.0 | 0.00 | 0.00 | 0.00 | 15 | 1004.7 |
| 20260503193049 | 89 | 157 | 10.0 | 0.0 | 0.00 | 0.00 | 0.00 | 13 | 1004.9 |
| 20260503191543 | 87 | 179 | 12.0 | 0.0 | 0.00 | 0.00 | 0.00 | 14 | 1005.2 |
| 20260503190046 | 88 | 215 | 9.0 | 0.0 | 0.00 | 0.00 | 0.00 | 13 | 1005.5 |
| 20260503184539 | 87 | 189 | 9.0 | 0.0 | 0.00 | 0.00 | 0.00 | 11 | 1005.5 |
| 20260503183045 | 87 | 184 | 10.0 | 0.0 | 0.00 | 0.00 | 0.00 | 12 | 1005.6 |
| 20260503181539 | 88 | 152 | 9.0 | 0.0 | 0.00 | 0.00 | 0.00 | 11 | 1005.8 |
| 20260503180044 | 87 | 218 | 12.0 | 0.0 | 0.00 | 0.00 | 0.00 | 12 | 1005.8 |
| 20260503174531 | 85 | 93 | 5.0 | 0.0 | 0.00 | 0.00 | 0.00 | 19 | 1006.0 |
| 20260503173029 | 85 | 96 | 3.0 | 0.0 | 0.00 | 0.00 | 0.00 | 18 | 1006.1 |
| 20260503171535 | 84 | 82 | 3.0 | 0.0 | 0.00 | 0.00 | 0.00 | 19 | 1006.2 |
| 20260503081534 | 77 | 224 | 3.0 | 0.0 | 0.00 | 0.00 | 0.00 | 14 | 1006.1 |
| 20260503071513 | 78 | 291 | 1.0 | 0.0 | 0.00 | 0.00 | 0.00 | 14 | 1006.5 |